(233) Asterope
ephemeris date magn radius delta ra dec elong phase
Today18 Apr 202413.82.537 AU3.457 AU03h04m+15°55'20.1°7.8°
Opposition17 Jan 202512.42.813 AU1.842 AU07h48m+09°28'168.6°4.0°
(233) Asterope - 2024-04-18
astro.vanbuitenen.nl


 
-1 year
-1 month
-1 day
Now
+1 day
+1 month
+1 year

The interactive orbit chart above shows the body's path through the solar system and its position at the given date. Green and blue lines are shown perpendicular to the ecliptic plane: Green if the path is above the ecliptic plane, blue if it is below. (Left-click and drag to rotate the view; Right-click and drag to move the view; Use scroll wheel to zoom in our out.)

The orbital elements of Asterope are:

            e (Eccentricity)                : 0.1006746
            a (Semimajor axis)              : 2.6618329
            i (Inclination)                 : 7.69295
            Ω (Longitude of ascending node) : 221.94285
            ω (Argument of perihelion)      : 126.58658
            M (Mean anomaly)                : 53.15199
            Epoch                           : 2024 Mar 31

            L (Longitude of perihelion)     : 168.77767
            B (Latitude of perihelion)      : 6.17049
            P (Orbital period in years)     : 4.34            
        

The light curve chart below shows the estimated development of the minor planet's magnitude.


The all-sky chart below shows the path of the minor planet over the same period as the light curve. The current position is marked yellow.





The following chart shows the path of the minor planet in the next few days. The field of view is optimized for (~10x50) binoculars and finderscopes. A more printer-friendly version of the same chart can be found below.




Ephemerides:
Date       Time       RA (2000)    DEC (2000)    delta   radius  elong  phase   PA    magn
2024-04-18 00:00 UT   03 04 29.1   +15 55 12     3.457    2.537   20.1    7.8    78   13.8 
2024-04-18 22:36 UT   03 06 11.4   +16 00 56     3.462    2.538   19.6    7.6    78   13.7 
2024-04-19 00:00 UT   03 06 17.8   +16 01 17     3.462    2.538   19.6    7.6    78   13.7 
2024-04-20 00:00 UT   03 08 06.6   +16 07 19     3.468    2.539   19.1    7.4    78   13.7 
2024-04-21 00:00 UT   03 09 55.5   +16 13 18     3.473    2.540   18.5    7.2    79   13.7 
2024-04-22 00:00 UT   03 11 44.5   +16 19 13     3.478    2.541   18.0    7.0    79   13.7 
2024-04-23 00:00 UT   03 13 33.7   +16 25 04     3.483    2.542   17.5    6.8    79   13.7 
2024-04-24 00:00 UT   03 15 23.0   +16 30 51     3.488    2.543   17.0    6.6    80   13.7 
2024-04-25 00:00 UT   03 17 12.5   +16 36 35     3.493    2.544   16.4    6.4    80   13.7 
2024-04-26 00:00 UT   03 19 02.0   +16 42 15     3.498    2.545   15.9    6.2    81   13.7 
2024-04-27 00:00 UT   03 20 51.7   +16 47 52     3.503    2.546   15.4    6.0    81   13.7 
2024-04-28 00:00 UT   03 22 41.4   +16 53 24     3.507    2.547   14.9    5.8    81   13.7 
2024-04-29 00:00 UT   03 24 31.3   +16 58 53     3.512    2.548   14.4    5.6    82   13.7 
2024-04-30 00:00 UT   03 26 21.3   +17 04 18     3.516    2.549   13.8    5.4    82   13.7 
2024-05-01 00:00 UT   03 28 11.4   +17 09 38     3.520    2.550   13.3    5.2    83   13.7 
2024-05-02 00:00 UT   03 30 01.7   +17 14 55     3.524    2.551   12.8    5.0    83   13.7 
2024-05-03 00:00 UT   03 31 52.0   +17 20 08     3.528    2.552   12.3    4.8    84   13.7 
2024-05-04 00:00 UT   03 33 42.4   +17 25 17     3.532    2.553   11.8    4.6    85   13.7 
2024-05-05 00:00 UT   03 35 32.9   +17 30 21     3.536    2.554   11.3    4.4    85   13.6 
2024-05-06 00:00 UT   03 37 23.5   +17 35 22     3.540    2.555   10.7    4.2    86   13.6 
2024-05-07 00:00 UT   03 39 14.2   +17 40 18     3.543    2.556   10.2    4.0    87   13.6 


    Terminology:
            
    delta:  distance between minor planet and earth in AU
    radius: distance between minor planet and sun in AU
    magn:   magnitude (brightness) estimate    
    ra:     right ascension in hours (24h = 360deg)
    dec:    declination in degrees
    elong:  elongation in degrees (angle sun-earth-minor planet)    
    phase:  phase angle in degrees (angle sun-minor planet-earth)        
    AU:     Astronomical Unit (mean distance between earth and sun: 149597870.7 km
    

Orbital elements provided by the MPC (Minor Planet Center).
Calculations by a modified version of AAPlus, a C# implementation of the AA+ project by PJ Naughter from the algorithms presented in the book "Astronomical Algorithms" by Jean Meeus.
NGC2000 dso catalog and star labels from VizieR as provided by the Strasbourg astronomical Data Center.
Tycho2 catalog from the ESO archive.